Location: Alsip
(41.6689°N, 87.7387°W)
Time: 15:11:47
(UTC+00:00)

IGS 5A - Pass Details

Date: 14 July 2020
Orbit: 582 x 589 km, 97.6° (Epoch: 08 August)

Event Time Altitude Azimuth Distance (km) Brightness Sun altitude
Exits shadow 02:20:05 12° 130° (SE) 1,755 5.2 -9.3°
Maximum altitude 02:23:20 32° 70° (ENE) 1,024 4.4 -9.7°
Drops below altitude 10° 02:27:01 10° 8° (N) 1,915 6.6 -10.3°
Sets 02:29:21 0° 358° (N) 2,819 7.7 -10.6°
